Regional Weather Roundup
Issued by NWS

Home | Current Version | Previous Version | Text Only | Print | Product List | Glossary On
Versions: 1 2 3 4 5 6 7 8 9 10 11 12 13 14 15 16 17 18 19 20 21 22 23 24 25 26 27 28 29 30 31 32 33 34 35 36 37 38 39 40 41 42 43 44 45 46 47 48 49 50
590
ASUS42 KTBW 042115
RWRFL
FLORIDA REGIONAL WEATHER ROUNDUP
NATIONAL WEATHER SERVICE TAMPA BAY RUSKIN FL
500 PM EDT WED MAY 04 2016

NOTE: "FAIR" INDICATES FEW OR NO CLOUDS BELOW 12,000 FEET WITH NO
SIGNIFICANT WEATHER AND/OR OBSTRUCTIONS TO VISIBILITY.

FLZ001>010-012>015-112-114-115-042200-
PANHANDLE FLORIDA

CITY           SKY/WX    TMP DP  RH WIND       PRES   REMARKS
PENSACOLA      SUNNY     76  46  34 NW15      29.81F
PENSACOLA NAS  MOSUNNY   76  47  35 N14G20    29.81S
MILTON NAS     MOSUNNY   73  46  38 NW10G23   29.81
CRESTVIEW      MOSUNNY   76  46  34 NW16      29.80F
DUKE FIELD     MOSUNNY   76  46  35 NW20      29.79R
VALPARAISO     PTSUNNY   76  47  35 N13       29.77F
TRI COUNTY     FAIR      76  49  38 NW12G18   29.77S
PANAMA CITY    FAIR      76  50  40 NW12G22   29.75F
TYNDALL AFB    MOSUNNY   77  52  41 NW16      29.74F
APALACHICOLA   LGT RAIN  79  57  46 W17G25    29.71F

STATION/POSITION SKY/WX   TEMP    WIND        PRES    WAVE   SWELL
                          AIR SEA DIR/SP/G            HT/PER HT/PER
                          (F)     (DEG/KT/KT) (MB)    (FT/S) (FT/S)
30.1N   87.6W              71 76  320/ 14/ 16 1009.1F   2/ 4
29.2N   88.2W              68 76  330/ 14/ 19 1011.6F
28.8N   86.0W              72 78  330/ 19/ 25 1008.6F   4/ 6
PANAMA CITY BEAC           73 77  300/ 11/ 18 1008.2F
TOWER C                    71     310/ 26/ 28 1006.8F
28.5N   84.5W              74 75  330/ 14/ 17 1006.4R   3/ 5

$$
FLZ011-016>038-118-127-128-134-139-239-042200-
NORTH FLORIDA

CITY           SKY/WX    TMP DP  RH WIND       PRES   REMARKS
MARIANNA       SUNNY     77  48  35 NW14      29.74F
TALLAHASSEE    PTSUNNY   80  49  33 NW15G21   29.72S
PERRY          MOSUNNY   80  54  41 W10       29.70S
LIVE OAK       PTSUNNY   81  57  44 W9        29.70F
CROSS CITY       N/A     80  57  45 W13       29.66F
LAKE CITY      FAIR      81  55  41 NW6       29.66F
GAINESVILLE    MOSUNNY   75  66  73 VRB3      29.65F
WILLISTON      FAIR      79  68  69 NW7       29.66F
PALATKA        LGT RAIN  68  68 100 S7        29.67F
MAYPORT NAS    PTSUNNY   76  63  64 NE6       29.65F
JACKSONVILLE   PTSUNNY   77  64  64 SE6       29.65F
JAX NAS        PTSUNNY   78  64  61 CALM      29.66F
JAX CECIL      PTSUNNY   79  63  57 NW6       29.66F
FERNANDINA BEA CLOUDY    77  64  65 E6        29.66F
ST AUGUSTINE   CLOUDY    71  67  87 SW6       29.68F
PALM COAST     RAIN      72  70  94 W5        29.68F

STATION/POSITION SKY/WX   TEMP    WIND        PRES    WAVE   SWELL
                          AIR SEA DIR/SP/G            HT/PER HT/PER
                          (F)     (DEG/KT/KT) (MB)    (FT/S) (FT/S)
SHELL POINT                78     330/  8/ 12 1004.6
KEATON BEACH               76     290/ 14/ 16 1005.0F
CEDAR KEY                  75     300/  6/  7 1005.5F
FERNANDINA                 74 77  120/  5/  9 1005.0F
30.7N   81.3W                 73                N/A     2/ 6
MAYPORT                    74 77  170/  4/  7 1005.3F
ST AUGUSTINE               69 71  230/  8/ 10 1005.5F

$$
FLZ040-043>046-052-053-057-058-063-144-042200-
INTERIOR CENTRAL FLORIDA

CITY           SKY/WX    TMP DP  RH WIND       PRES   REMARKS
OCALA          PTSUNNY   73  66  78 S12       29.67F
THE VILLAGES   FOG       70  70 100 S6        29.59S VSB 3/4
LEESBURG       CLOUDY    70  65  84 S10       29.69S
SANFORD        CLOUDY    71  65  81 S13       29.64F
ORLANDO EXEC   CLOUDY    71  66  84 SE14      29.63F
ORLANDO INTL   CLOUDY    70  66  87 SE16      29.64F
KISSIMMEE      MOSUNNY   70  68  94 SE10      29.66F FOG
WINTER HAVEN   CLOUDY    70  67  90 S14       29.69F
LAKELAND       TSTM      72  68  88 S7        29.70F
BARTOW         PTSUNNY   72  68  88 SE10      29.72F
OKEECHOBEE     CLOUDY    70  68  94 NE5       29.75F

$$
FLZ041-047-054-059-064-141-147-042200-
EAST CENTRAL FLORIDA

CITY           SKY/WX    TMP DP  RH WIND       PRES   REMARKS
ORMOND BEACH   MOSUNNY   73  66  78 W12       29.69S
DAYTONA BEACH  CLOUDY    73  67  81 SW8       29.68R
DELAND           N/A     72  66  83 CALM      29.66F
NEW SMYRNA BEA PTSUNNY   72  66  83 SW15G29   29.68F
JFK SPACE CTR  CLOUDY    72  66  82 SW14      29.68S
TITUSVILLE     MOSUNNY   70  68  94 S16       29.69F
CAPE CANAVERAL CLOUDY    72  67  84 S12       29.67F
PATRICK AFB    PTSUNNY   73  70  90 S18       29.68F
MELBOURNE      PTSUNNY   73  69  87 S10       29.70R
VERO BEACH     PTSUNNY   70  66  87 NW5       29.75F
FT PIERCE      CLOUDY    69  67  93 CALM      29.75F
STUART         LGT RAIN  72  68  88 SE14      29.75F

STATION/POSITION SKY/WX   TEMP    WIND        PRES    WAVE   SWELL
                          AIR SEA DIR/SP/G            HT/PER HT/PER
                          (F)     (DEG/KT/KT) (MB)    (FT/S) (FT/S)
28.5N   80.2W              72 77  220/ 19/ 23 1006.1F
28.9N   78.5W              77 78  210/ 10/ 12 1006.6F
TRIDENT PIER               69 78  170/ 10/ 13 1005.8F
28.4N   80.5W                 78                N/A     1/ 3
27.5N   80.2W                 76                N/A     2/10

$$
FLZ050-056-061-142-242-148-248-149-249-151-251-155-255-
160-260-042200-
WEST CENTRAL FLORIDA

CITY           SKY/WX    TMP DP  RH WIND       PRES   REMARKS
CRYSTAL RIVER  CLOUDY    72  70  94 W9        29.67F
INVERNESS      TSTM      70  70 100 S5        29.70R VSB 1/2
BROOKSVILLE    LGT RAIN  69  67  93 S10       29.68F
ZEPHYRHILLS    TSTM      62  59  90 S9        29.68F
CLEARWATER AIR HVY RAIN  70  68  94 E6        29.67S VSB 3/4
ST PETE CLEARW LGT RAIN  71  68  90 SE12      29.66F FOG
TAMPA INTL     TSTM      70  68  93 NE9       29.68F VSB 1/2
TAMPA EXEC     RAIN      72  68  88 SE5       29.68F
PLANT CITY     RAIN      72  70  94 SE7       29.70F
MACDILL AFB    LGT RAIN  71  71 100 SE17      29.62F
PETER O KNIGHT LGT RAIN  73  70  88 SE14      29.64F
ST PETERSBURG  LGT RAIN  71  68  90 S21       29.63F
SARASOTA       CLOUDY    73  67  81 SE10      29.66F
VENICE         NOT AVBL

STATION/POSITION SKY/WX   TEMP    WIND        PRES    WAVE   SWELL
                          AIR SEA DIR/SP/G            HT/PER HT/PER
                          (F)     (DEG/KT/KT) (MB)    (FT/S) (FT/S)
27.3N   84.2W                 79                N/A     4/ 5
CLEARWATER BEACH           71 80  130/ 10/ 16 1005.0F
MIDDLE TAMPA BAY           73     140/ 15/ 18 1006.2F
VENICE                     74 83  170/ 17/ 19 1004.8F

$$
FLZ066-069-070-075>078-162-262-165-265-042200-
SOUTHWEST FLORIDA AND KEYS

CITY           SKY/WX    TMP DP  RH WIND       PRES   REMARKS
PUNTA GORDA    LGT RAIN  73  69  87 S12       29.72F
FT MYERS       CLOUDY    71  70  96 SE5       29.70F
SOUTHWEST INTL CLOUDY    72  68  87 SE8       29.71F
NAPLES         TSTM      74  72  93 SE9       29.70F FOG
MARCO ISLAND   PTSUNNY   73  68  83 NW7       29.76R THUNDER
MARATHON       CLOUDY    83  76  79 SW6       29.75F
KEY WEST NAS   TSTM      80  76  87 W16       29.77F
KEY WEST INTL  LGT RAIN  78  78 100 W12       29.77S

STATION/POSITION SKY/WX   TEMP    WIND        PRES    WAVE   SWELL
                          AIR SEA DIR/SP/G            HT/PER HT/PER
                          (F)     (DEG/KT/KT) (MB)    (FT/S) (FT/S)
NAPLES                        83              1006.9F
26.0N   85.6W              78 80  330/ 19/ 23 1007.6F   2/ 5
DRY TORTUGAS               74     200/ 29/ 33 1006.9F
SAND KEY                   80     270/ 15/ 17 1008.5R
LONG KEY                   82 83  260/ 13/ 14 1007.8F

$$
FLZ067-068-071>074-168-172>174-042200-
SOUTHEAST FLORIDA

CITY           SKY/WX    TMP DP  RH WIND       PRES   REMARKS
W PALM BEACH   CLOUDY    67  66  97 NE9       29.77F
BOCA RATON     PTSUNNY   70  68  94 E12       29.77F
FT LAUDER-EXEC CLOUDY    70  68  93 N8        29.75F
FT LAUDERDALE  CLOUDY    73  70  90 NE8       29.74F
POMPANO BEACH  CLOUDY    71  69  93 N7        29.76F
PEMBROKE PINES CLOUDY    74  71  91 NE8       29.75F
OPA LOCKA      CLOUDY   N/A N/A N/A CALM      29.75F
MIAMI          CLOUDY    75  72  90 N7        29.75F
WEST KENDALL   CLOUDY    76  73  91 CALM      29.75F
HOMESTEAD      DRIZZLE   75  73  95 E5        29.76R

STATION/POSITION SKY/WX   TEMP    WIND        PRES    WAVE   SWELL
                          AIR SEA DIR/SP/G            HT/PER HT/PER
                          (F)     (DEG/KT/KT) (MB)    (FT/S) (FT/S)
PORT EVERGLADES            72     150/  7/ 12 1008.8F
VIRGINIA KEY               72 81  100/  6/ 10 1008.9F
LAKE WORTH                 69 79  340/  6/  9 1009.3R
SETTLEMENT POINT           73     210/ 18/ 20 1009.9F

$$





USA.gov is the U.S. government's official web portal to all federal, state and local government web resources and services.